STARLINK-5181 (54070 NORAD) Tracking and Keplerian Element Data

This shows tracking and keplerian element data for the satellite.

Feedback or suggestion? Click here.




ElementValue
Catalog54070
NameSTARLINK-5181
Epoch Orbit548
Epoch Day325.33334491
Epoch Year2022
RAAN352.6346
Inclination53.2172
Eccentricity0.0003411
Argument of Perigee281.8069
Mean Anonmoly277.5359
Mean Motion15.49063373
Decay Rate-0.01172856
L11 54070U 22136V 22325.33334491 -.01172856 00000+0 -23281-1 0 9992
L22 54070 53.2172 352.6346 0003411 281.8069 277.5359 15.49063373 5486



Live tracking and technical data element details for STARLINK-5181 (NORAD 54070). STARLINK-5181 can be tracked NOW for your location showing map with azimuth and elevation plus other details from your city location.







IsCatalogInMostPopularTable: catalog: 54070, numindb: 2
Update: records affected: 1



GetName: 54070 STARLINK-5181

Hit Count: updated at: Fri, 09 Dec 2022 20:23:13 GMT